Flag Weather past 2 weeks in Evansville, Indiana, U.S.A.

Now
43 °F

Overcast.


Feels Like: 36 °F
Forecast: 34 / 48 °F
Wind: 15 mph from Northwest

Location: Evansville Regional Airport

Current Time: Oct 31, 2014 at 11:40:38 AM

Latest Report: Oct 31, 2014 at 10:54 AM


Visibility: 10 mi

Pressure: 30.11 "Hg

Humidity: 79%

Dew point: 37 °F

Location of EvansvilleLocation

Historic Weather in Evansville — Graph

°F

Evansville temperature yesterday

Maximum temperature yesterday: 58 °F (at 2:54 PM)
Minimum temperature yesterday: 37 °F (at 6:54 AM)
Average temperature yesterday: 48 °F

Past Weeks' High & Low Weather Summary

 TemperatureHumidityPressure
High82 °F (Oct 27, 1:54 PM)94% (Oct 28, 8:54 AM)30.33 "Hg (Oct 28, 8:54 AM)
Low37 °F (Oct 30, 6:54 AM)30% (Oct 26, 1:54 PM)29.75 "Hg (Oct 17, 4:54 AM)
Average57 °F69%30.05 "Hg
* Reported Oct 16 9:54 AM — Oct 31 9:54 AM, Evansville, Weather by CustomWeather, © 2014

Note: Actual official high and low records may vary slightly from our data, if they occured in-between our weather recording intervals... More about our weather records

Advertising

Evansville weather history for previous 24 hours

 ConditionsComfort  
Time TempWeatherWind HumidityBarometerVisibility
9:54 AM
Oct 31
48 °FMostly cloudy.10 mph77%30.08 "Hg10 mi
8:54 AM48 °FLight rain. More clouds than sun.7 mph83%30.08 "Hg6 mi
7:54 AM48 °FOvercast.9 mph83%30.07 "Hg9 mi
6:54 AM48 °FMostly cloudy.5 mph86%30.05 "Hg8 mi
5:54 AM48 °FMostly cloudy.3 mph86%30.04 "Hg9 mi
4:54 AM48 °FOvercast.7 mph86%30.02 "Hg10 mi
3:54 AM49 °FOvercast.7 mph80%30.02 "Hg10 mi
2:54 AM49 °FMostly cloudy.6 mph80%30.02 "Hg10 mi
1:54 AM50 °FLight rain. Mostly cloudy.6 mph77%30.03 "Hg10 mi
12:54 AM51 °FMostly cloudy.6 mph71%30.04 "Hg10 mi
11:54 PM
Oct 30
51 °FOvercast.No wind77%30.04 "Hg10 mi
10:54 PM51 °FOvercast.No wind77%30.05 "Hg10 mi
9:54 PM51 °FOvercast.No wind80%30.06 "Hg10 mi
8:54 PM51 °FOvercast.No wind74%30.06 "Hg10 mi
7:54 PM51 °FMostly cloudy.No wind71%30.06 "Hg10 mi
6:54 PM52 °FClear.3 mph66%30.06 "Hg10 mi
5:54 PM54 °FPassing clouds.3 mph57%30.06 "Hg10 mi
4:54 PM58 °FPartly sunny.3 mph47%30.05 "Hg10 mi
3:54 PM57 °FOvercast.5 mph49%30.06 "Hg10 mi
2:54 PM58 °FSunny.3 mph47%30.08 "Hg10 mi
1:54 PM56 °FSunny.5 mph51%30.10 "Hg10 mi
12:54 PM55 °FSunny.No wind49%30.14 "Hg10 mi
11:54 AM52 °FSunny.No wind53%30.16 "Hg10 mi
Weather by CustomWeather, © 2014

See weather overviewHow to use our weather pages